GW3020 Weather Reports


time (UTC)temp
F
wind
direction
speed
knots
gust
knots
rain 1hr
in
rain 24hr
in
rain mn
in
humidity
%
barometer
mb
20260906105700 66 223 0.0 0.0 0.00 0.00 0.00 96 1013.8
20260906105156 66 223 0.0 0.0 0.00 0.00 0.00 96 1014.1
20260906104655 66 224 0.0 0.0 0.00 0.00 0.00 96 1014.4
20260906104149 66 226 0.0 0.0 0.00 0.00 0.00 96 1014.3
20260906103647 66 238 0.0 0.0 0.00 0.00 0.00 96 1014.5
20260906103143 66 259 0.9 0.9 0.00 0.00 0.00 96 1014.3
20260906102638 66 246 0.0 0.0 0.00 0.00 0.00 96 1014.2
20260906102137 66 246 0.0 0.0 0.00 0.00 0.00 96 1014.3
20260906101637 66 252 0.0 0.9 0.00 0.00 0.00 96 1013.9
20260906101136 66 241 0.0 0.0 0.00 0.00 0.00 96 1014.1
20260906100632 66 248 0.0 0.0 0.00 0.00 0.00 96 1014.2
20260906100127 66 244 0.0 0.9 0.00 0.00 0.00 96 1014.4
20260906095622 66 242 0.0 0.0 0.00 0.00 0.00 96 1014.1
20260906095118 66 244 0.9 0.9 0.00 0.00 0.00 96 1014.4
20260906094616 66 212 0.0 0.0 0.00 0.00 0.00 96 1014.3
20260906094112 67 201 0.0 0.9 0.00 0.00 0.00 96 1013.8
20260906093608 67 353 0.0 0.0 0.00 0.00 0.00 96 1013.6
20260906093102 67 335 0.9 1.7 0.00 0.00 0.00 96 1013.8
20260906092557 67 258 0.9 1.7 0.00 0.00 0.00 96 1013.7
20260906092052 67 253 0.0 0.0 0.00 0.00 0.00 96 1013.7
20260906091548 67 253 0.0 0.0 0.00 0.00 0.00 96 1013.5
20260906091045 67 249 0.0 0.0 0.00 0.00 0.00 96 1013.7
20260906090545 66 249 0.0 0.0 0.00 0.00 0.00 96 1013.9
20260906090040 66 249 0.0 0.0 0.00 0.00 0.00 96 1013.6
20260906085539 66 249 0.0 0.0 0.00 0.00 0.00 96 1013.6
20260906085039 66 249 0.0 0.0 0.00 0.00 0.00 96 1013.7
20260906084539 66 249 0.0 0.0 0.00 0.00 0.00 96 1013.8
20260906084037 66 249 0.0 0.0 0.00 0.00 0.00 96 1013.6
20260906083533 66 249 0.0 0.0 0.00 0.00 0.00 96 1013.7
20260906083033 66 248 0.0 0.0 0.00 0.00 0.00 96 1013.8
20260906082528 66 248 0.0 0.0 0.00 0.00 0.00 96 1013.6
20260906082024 65 246 0.0 0.0 0.00 0.00 0.00 96 1013.6
20260906081519 65 245 0.0 0.0 0.00 0.00 0.00 96 1013.6
20260906081015 65 245 0.0 0.0 0.00 0.00 0.00 96 1013.5
20260906080512 66 245 0.0 0.0 0.00 0.00 0.00 96 1013.4
20260906080007 66 245 0.0 0.0 0.00 0.00 0.00 96 1013.6
20260906075501 66 245 0.0 0.0 0.00 0.00 0.00 96 1013.9
20260906074957 66 245 0.0 0.0 0.00 0.00 0.00 96 1013.8
20260906074456 66 245 0.0 0.0 0.00 0.00 0.00 96 1013.7
20260906073954 66 245 0.0 0.0 0.00 0.00 0.00 96 1014.1
20260906073450 66 254 0.0 0.9 0.00 0.00 0.00 96 1013.9
20260906072946 66 253 0.9 0.9 0.00 0.00 0.00 96 1014.2
20260906072441 66 250 0.0 0.9 0.00 0.00 0.00 96 1014.1
20260906071937 66 243 0.0 0.0 0.00 0.00 0.00 96 1013.9
20260906071433 66 240 0.0 0.0 0.00 0.00 0.00 95 1014.1
20260906070929 66 240 0.9 0.9 0.00 0.00 0.00 95 1014.1
20260906070425 66 240 0.0 0.0 0.00 0.00 0.00 95 1013.9
20260906065921 67 240 0.0 0.0 0.00 0.00 0.00 95 1013.8
20260906065415 67 240 0.0 0.9 0.00 0.00 0.00 95 1013.9
20260906064911 66 239 0.0 0.0 0.00 0.00 0.00 95 1013.8
20260906064407 66 239 0.0 0.0 0.00 0.00 0.00 95 1013.9
20260906063906 66 239 0.0 0.0 0.00 0.00 0.00 95 1013.7
20260906063401 66 239 0.0 0.0 0.00 0.00 0.00 95 1013.8
20260906062856 66 239 0.0 0.0 0.00 0.00 0.00 95 1013.7
20260906062355 67 239 0.0 0.0 0.00 0.00 0.00 95 1014.1
20260906061851 67 239 0.0 0.0 0.00 0.00 0.00 95 1014.3
20260906061348 67 239 0.0 0.0 0.00 0.00 0.00 95 1014.3
20260906060842 67 239 0.0 0.0 0.00 0.00 0.00 95 1014.5
20260906060340 67 238 0.0 0.9 0.00 0.00 0.00 95 1014.5
20260906055835 67 239 0.0 0.9 0.00 0.00 0.00 95 1014.6
20260906055331 67 239 0.0 0.0 0.00 0.00 0.00 95 1014.5
20260906054826 67 239 0.0 0.9 0.00 0.00 0.00 95 1014.5
20260906054321 68 240 0.0 0.0 0.00 0.00 0.00 95 1014.7
20260906053817 68 240 0.0 0.0 0.00 0.00 0.00 95 1014.7
20260906053313 68 240 0.0 0.9 0.00 0.00 0.00 95 1014.7
20260906052808 68 240 0.0 0.9 0.00 0.00 0.00 95 1014.6
20260906052305 68 239 0.0 0.0 0.00 0.00 0.00 95 1014.6
20260906051801 68 241 0.0 0.0 0.00 0.00 0.00 95 1014.7
20260906051300 68 245 0.0 0.0 0.00 0.00 0.00 95 1014.9
20260906050755 68 238 0.0 0.9 0.00 0.00 0.00 95 1014.7
20260906050251 68 226 0.0 0.9 0.00 0.00 0.00 95 1014.7
20260906045749 68 214 0.0 0.9 0.00 0.00 0.00 95 1014.5
20260906045244 68 213 0.9 0.9 0.00 0.00 0.00 95 1014.6
20260906044740 68 257 0.0 0.0 0.00 0.00 0.00 95 1014.5
20260906044235 68 258 0.0 0.0 0.00 0.00 0.00 95 1014.4
20260906043731 68 258 0.0 0.9 0.00 0.00 0.00 95 1014.4
20260906043227 68 258 0.0 0.9 0.00 0.00 0.00 95 1014.5
20260906042727 68 258 0.0 0.9 0.00 0.00 0.00 95 1014.5
20260906042225 68 236 0.0 0.0 0.00 0.00 0.00 95 1014.4
20260906041716 68 236 0.0 0.0 0.00 0.00 0.00 94 1014.7
20260906041211 68 236 0.0 0.0 0.00 0.00 0.00 94 1014.5
20260906040707 68 230 0.0 0.0 0.00 0.00 0.00 94 1014.4
20260906040202 68 230 0.0 0.0 0.00 0.00 0.00 94 1014.3
20260906035658 68 230 0.0 0.0 0.00 0.32 0.32 94 1014.2
20260906035153 68 230 0.0 0.0 0.00 0.32 0.32 94 1014.3
20260906034652 68 230 0.0 0.0 0.00 0.32 0.32 94 1014.4
20260906034147 69 217 0.0 0.9 0.00 0.32 0.32 94 1014.5
20260906033644 69 205 0.0 0.9 0.00 0.32 0.32 94 1014.5
20260906033138 69 246 0.0 0.9 0.00 0.32 0.32 94 1014.3
20260906032635 69 246 0.0 0.0 0.00 0.32 0.32 93 1014.7
20260906032134 69 246 0.0 0.0 0.00 0.32 0.32 93 1015.0
20260906031630 69 246 0.0 0.0 0.00 0.32 0.32 93 1014.9
20260906031125 69 246 0.0 0.9 0.00 0.32 0.32 93 1014.8
20260906030624 69 246 0.0 0.0 0.00 0.32 0.32 93 1014.9
20260906030120 69 246 0.0 0.9 0.00 0.32 0.32 93 1015.0
20260906025619 69 246 0.0 0.9 0.00 0.32 0.32 93 1014.9
20260906025118 69 251 0.0 0.0 0.00 0.32 0.32 93 1015.2
20260906024613 70 251 0.9 0.9 0.00 0.32 0.32 93 1015.1
20260906024107 70 251 0.0 0.9 0.00 0.32 0.32 93 1015.1
20260906023603 70 253 0.9 0.9 0.00 0.32 0.32 92 1015.3
20260906023058 70 253 0.0 0.9 0.00 0.32 0.32 92 1015.1
20260906022553 70 253 0.0 0.0 0.00 0.32 0.32 92 1015.1
20260906022049 70 254 0.0 0.9 0.00 0.32 0.32 92 1015.0
20260906021544 70 254 0.0 0.0 0.00 0.32 0.32 91 1015.2
20260906021043 71 255 0.9 0.9 0.00 0.32 0.32 91 1014.9
20260906020542 71 255 0.0 0.9 0.00 0.32 0.32 91 1015.1
20260906020036 71 251 0.0 0.0 0.00 0.32 0.32 91 1015.1
20260906015535 71 247 0.9 0.9 0.00 0.32 0.32 91 1015.0
20260906015030 71 244 0.9 0.9 0.00 0.32 0.32 91 1015.1
20260906014525 72 235 0.0 0.0 0.00 0.32 0.32 90 1014.8
20260906014021 72 236 0.9 0.9 0.00 0.32 0.32 89 1015.0
20260906013516 73 231 0.0 0.9 0.00 0.32 0.32 88 1014.7
20260906013011 73 258 0.0 0.0 0.00 0.32 0.32 87 1014.8
20260906012507 73 260 0.0 0.9 0.00 0.32 0.32 86 1015.0
20260906012005 73 257 0.9 0.9 0.00 0.32 0.32 85 1014.9
20260906011501 73 264 0.0 0.9 0.00 0.32 0.32 86 1014.5
20260906010955 73 256 0.9 1.7 0.00 0.32 0.32 86 1014.6
20260906010446 73 252 0.9 0.9 0.00 0.32 0.32 85 1014.6
20260906005942 73 304 0.9 0.9 0.00 0.32 0.32 87 1014.5
20260906005435 74 272 0.9 1.7 0.00 0.32 0.32 86 1014.4
20260906004928 74 250 0.9 0.9 0.00 0.32 0.32 87 1014.4
20260906004423 74 266 0.9 2.6 0.00 0.32 0.32 87 1014.3
20260906003919 74 259 0.9 1.7 0.00 0.32 0.32 87 1014.4
20260906003414 75 253 0.0 0.9 0.00 0.32 0.32 86 1014.5
20260906002908 75 312 1.7 2.6 0.00 0.32 0.32 85 1014.4
20260906002403 75 344 0.9 0.9 0.00 0.32 0.32 84 1014.4
20260906001858 75 289 1.7 1.7 0.00 0.32 0.32 83 1013.9
20260906001353 75 256 1.7 2.6 0.00 0.32 0.32 83 1013.9
20260906000848 75 261 0.9 1.7 0.00 0.32 0.32 82 1013.7
20260906000348 75 253 1.7 1.7 0.00 0.32 0.32 82 1013.9
20260905235843 76 255 0.9 0.9 0.00 0.32 0.32 82 1014.1
20260905235337 76 246 0.9 1.7 0.00 0.32 0.32 81 1014.2
20260905234833 76 236 0.0 0.0 0.00 0.32 0.32 81 1013.5
20260905234328 76 230 0.9 0.9 0.00 0.32 0.32 80 1013.5
20260905233823 77 273 0.9 0.9 0.00 0.32 0.32 80 1013.7
20260905233318 77 238 0.0 0.0 0.00 0.32 0.32 79 1013.9
20260905232817 77 246 0.9 1.7 0.00 0.32 0.32 78 1013.8
20260905232314 78 232 0.9 0.9 0.00 0.32 0.32 78 1013.6
20260905231809 78 243 0.9 3.5 0.00 0.32 0.32 77 1013.7
20260905231304 79 231 0.9 2.6 0.00 0.32 0.32 76 1013.6
20260905230800 80 226 0.9 1.7 0.00 0.32 0.32 74 1013.7
20260905230258 80 258 0.0 2.6 0.00 0.32 0.32 73 1013.6
20260905225758 81 273 1.7 3.5 0.00 0.32 0.32 72 1013.6
20260905225252 81 234 0.9 3.5 0.00 0.32 0.32 72 1013.6
20260905224752 81 223 3.5 6.1 0.00 0.32 0.32 72 1014.1
20260905224248 81 266 1.7 2.6 0.00 0.32 0.32 71 1013.9
20260905223743 81 259 2.6 2.6 0.00 0.32 0.32 70 1013.9
20260905223240 82 227 1.7 5.2 0.00 0.32 0.32 70 1013.9
20260905222736 82 228 2.6 5.2 0.00 0.32 0.32 69 1014.1
20260905222234 82 214 0.9 0.9 0.00 0.32 0.32 69 1013.9
20260905221731 82 223 0.9 2.6 0.00 0.32 0.32 69 1013.8
20260905221227 82 215 0.9 6.1 0.00 0.32 0.32 69 1013.7
20260905220723 82 218 0.9 1.7 0.00 0.32 0.32 67 1013.8
20260905220219 82 173 2.6 2.6 0.00 0.32 0.32 67 1013.8
20260905215718 82 226 0.9 3.5 0.00 0.32 0.32 68 1013.6
20260905215214 81 223 0.9 1.7 0.00 0.32 0.32 69 1013.6
20260905214709 81 204 0.9 3.5 0.00 0.32 0.32 68 1013.8
20260905214205 81 208 0.9 1.7 0.00 0.32 0.32 68 1013.6
20260905213700 81 249 1.7 2.6 0.00 0.32 0.32 69 1013.7
20260905213156 82 251 1.7 7.0 0.00 0.32 0.32 68 1013.7
20260905212650 82 227 0.9 1.7 0.00 0.32 0.32 67 1013.6
20260905212150 82 222 0.9 1.7 0.00 0.32 0.32 67 1013.6
20260905211644 82 222 0.9 2.6 0.00 0.32 0.32 67 1013.6
20260905211140 82 230 0.9 2.6 0.00 0.32 0.32 67 1013.6
20260905210636 80 256 1.7 3.5 0.00 0.32 0.32 70 1013.4
20260905210131 80 244 2.6 3.5 0.00 0.32 0.32 70 1013.4
20260905205630 80 204 0.9 1.7 0.00 0.32 0.32 70 1013.3
20260905205130 80 224 0.9 2.6 0.00 0.32 0.32 70 1013.4
20260905204624 80 205 0.9 1.7 0.00 0.32 0.32 71 1013.4
20260905204119 80 248 4.3 6.1 0.00 0.32 0.32 71 1013.4
20260905203614 80 208 0.9 0.9 0.00 0.32 0.32 72 1013.5
20260905203109 80 203 0.9 1.7 0.00 0.32 0.32 72 1013.5
20260905202604 79 215 1.7 5.2 0.00 0.32 0.32 72 1013.3
20260905202059 79 223 0.0 2.6 0.00 0.32 0.32 71 1013.5
20260905201554 78 241 0.9 5.2 0.00 0.32 0.32 74 1013.4
20260905201054 78 238 1.7 2.6 0.00 0.32 0.32 74 1013.3
20260905200549 77 226 0.9 5.2 0.00 0.32 0.32 75 1013.5
20260905200044 77 246 3.5 6.1 0.00 0.32 0.32 76 1013.4
20260905195543 77 318 1.7 2.6 0.00 0.32 0.32 75 1013.4
20260905195039 77 268 1.7 3.5 0.00 0.32 0.32 74 1013.5
20260905194539 77 203 0.9 1.7 0.00 0.32 0.32 76 1013.6
20260905194038 77 250 1.7 2.6 0.00 0.32 0.32 76 1013.3
20260905193533 76 240 2.6 6.1 0.00 0.32 0.32 77 1013.5
20260905193028 76 221 0.9 3.5 0.00 0.32 0.32 78 1013.5
20260905192523 76 257 2.6 5.2 0.00 0.32 0.32 78 1013.6
20260905192020 76 250 1.7 2.6 0.00 0.32 0.32 80 1013.5
20260905191518 75 265 1.7 5.2 0.00 0.32 0.32 79 1013.6
20260905191018 75 255 0.9 1.7 0.00 0.32 0.32 80 1013.7
20260905190516 75 267 2.6 5.2 0.00 0.32 0.32 78 1013.8
20260905190016 74 159 1.7 2.6 0.00 0.32 0.32 80 1013.7
20260905185510 74 310 4.3 7.8 0.00 0.32 0.32 81 1013.7
20260905185009 74 202 0.9 7.0 0.00 0.32 0.32 82 1014.2
20260905184504 73 214 0.9 3.5 0.00 0.32 0.32 81 1014.3
20260905184002 73 235 2.6 3.5 0.00 0.32 0.32 83 1014.2
20260905183457 73 244 1.7 3.5 0.00 0.32 0.32 83 1014.3
20260905182952 72 245 1.7 7.0 0.00 0.32 0.32 83 1014.2
20260905182451 73 250 2.6 6.1 0.00 0.32 0.32 85 1014.6
20260905181946 72 264 4.3 6.1 0.00 0.32 0.32 87 1014.4
20260905181441 72 271 5.2 7.8 0.00 0.32 0.32 88 1014.8
20260905180940 71 224 0.9 5.2 0.00 0.32 0.32 89 1014.5
20260905180435 70 234 1.7 1.7 0.00 0.32 0.32 90 1014.5
20260905175930 70 243 0.0 3.5 0.00 0.32 0.32 91 1014.8
20260905175430 70 242 1.7 3.5 0.00 0.32 0.32 92 1015.1
20260905174925 69 206 0.9 1.7 0.00 0.32 0.32 92 1015.0
20260905174421 69 211 0.0 1.7 0.00 0.32 0.32 93 1015.1
20260905173916 69 236 1.7 2.6 0.00 0.32 0.32 93 1015.6
20260905173413 68 228 0.9 1.7 0.00 0.32 0.32 93 1015.3
20260905172912 68 225 0.0 0.9 0.00 0.32 0.32 93 1015.4
20260905172410 68 26 0.9 1.7 0.00 0.32 0.32 93 1015.2
20260905171906 68 183 1.7 1.7 0.00 0.32 0.32 93 1015.7
20260905171403 68 338 1.7 1.7 0.12 0.32 0.32 93 1016.4
20260905170859 68 37 0.9 1.7 0.05 0.31 0.31 92 1015.7
20260905170355 69 214 0.9 0.9 0.07 0.30 0.30 92 1016.6
20260905165854 70 216 0.0 0.9 0.12 0.30 0.30 92 1017.1
20260905165349 71 223 0.9 1.7 0.12 0.29 0.29 92 1017.1
20260905164844 71 219 0.0 2.6 0.07 0.28 0.28 92 1017.3
20260905164339 71 206 0.9 0.9 0.07 0.27 0.27 92 1017.4
20260905163834 72 245 0.9 1.7 0.07 0.27 0.27 92 1017.8
20260905163325 72 262 0.9 1.7 0.00 0.26 0.26 92 1017.7
20260905162820 73 236 0.9 1.7 0.00 0.26 0.26 92 1018.1
20260905162314 72 243 0.0 1.7 0.00 0.26 0.26 92 1017.8
20260905161809 72 136 0.0 0.0 0.05 0.26 0.26 91 1017.5
20260905161308 73 160 1.7 1.7 0.05 0.26 0.26 91 1017.1
20260905160807 73 137 0.0 0.9 0.78 0.25 0.25 90 1016.8
20260905160301 75 159 0.0 2.6 1.51 0.25 0.25 88 1016.7
20260905155756 79 321 3.5 6.1 0.61 0.10 0.10 81 1016.9
20260905155255 81 204 2.6 7.0 0.00 0.00 0.00 73 1016.4
20260905154749 82 235 0.9 1.7 0.00 0.00 0.00 73 1016.0
20260905154245 83 234 0.0 1.7 0.00 0.00 0.00 72 1015.8
20260905153740 83 242 1.7 2.6 0.00 0.00 0.00 71 1016.1
20260905153235 84 234 3.5 6.1 0.00 0.00 0.00 70 1015.9
20260905152730 84 233 1.7 2.6 0.00 0.00 0.00 70 1016.0
20260905152224 84 316 1.7 2.6 0.00 0.00 0.00 70 1016.1
20260905151719 84 223 0.0 1.7 0.00 0.00 0.00 71 1015.9
20260905151215 83 230 1.7 3.5 0.00 0.00 0.00 72 1016.0
20260905150710 83 271 0.9 1.7 0.00 0.00 0.00 72 1016.1
20260905150209 82 202 0.0 1.7 0.00 0.00 0.00 74 1016.1
20260905145706 81 216 1.7 2.6 0.00 0.00 0.00 75 1016.2
20260905145202 81 211 0.9 1.7 0.00 0.00 0.00 75 1015.9
20260905144700 81 285 3.5 5.2 0.00 0.00 0.00 75 1015.8
20260905144154 80 205 1.7 2.6 0.00 0.00 0.00 76 1015.7
20260905143654 80 240 0.9 1.7 0.00 0.00 0.00 76 1015.8
20260905143149 80 272 1.7 2.6 0.00 0.00 0.00 76 1015.8
20260905142648 80 223 1.7 2.6 0.00 0.00 0.00 77 1016.1
20260905142148 80 254 1.7 7.0 0.00 0.00 0.00 78 1016.0
20260905141643 79 240 1.7 3.5 0.00 0.00 0.00 78 1016.1
20260905141139 79 219 1.7 3.5 0.00 0.00 0.00 79 1016.0
20260905140633 79 210 1.7 2.6 0.00 0.00 0.00 79 1016.1
20260905140132 78 200 0.9 1.7 0.00 0.00 0.00 79 1016.2
20260905135628 78 220 0.0 0.9 0.00 0.00 0.00 80 1016.0
20260905135123 78 229 0.9 2.6 0.00 0.00 0.00 80 1016.0
20260905134613 78 196 1.7 3.5 0.00 0.00 0.00 80 1016.0
20260905134111 77 248 2.6 5.2 0.00 0.00 0.00 82 1016.2
20260905133607 76 244 0.9 3.5 0.00 0.00 0.00 83 1016.0
20260905133106 76 239 1.7 2.6 0.00 0.00 0.00 84 1016.0
20260905132606 75 243 0.9 1.7 0.00 0.00 0.00 85 1016.0
20260905132100 75 237 0.9 2.6 0.00 0.00 0.00 85 1016.0
20260905131556 74 225 2.6 2.6 0.00 0.00 0.00 86 1016.1
20260905131051 74 217 0.0 0.9 0.00 0.00 0.00 86 1016.1
20260905130550 73 241 0.0 0.9 0.00 0.00 0.00 87 1016.2
20260905130046 72 233 0.0 1.7 0.00 0.00 0.00 87 1016.3
20260905125545 72 262 1.7 2.6 0.00 0.00 0.00 87 1016.3
20260905125041 71 246 1.7 3.5 0.00 0.00 0.00 88 1016.3
20260905124537 71 269 1.7 2.6 0.00 0.00 0.00 88 1016.2
20260905124033 71 231 3.5 3.5 0.00 0.00 0.00 89 1016.2
20260905123528 71 246 1.7 3.5 0.00 0.00 0.00 88 1016.2
20260905123026 70 276 3.5 3.5 0.00 0.00 0.00 89 1016.4
20260905122525 70 251 1.7 2.6 0.00 0.00 0.00 89 1016.3
20260905122020 70 234 0.9 1.7 0.00 0.00 0.00 89 1016.3
20260905121515 70 241 0.9 1.7 0.00 0.00 0.00 89 1016.0
20260905121015 69 256 0.9 2.6 0.00 0.00 0.00 90 1015.8
20260905120509 69 248 0.9 0.9 0.00 0.00 0.00 90 1016.0
20260905120005 69 242 0.9 1.7 0.00 0.00 0.00 90 1016.1
20260905115503 69 239 0.0 0.9 0.00 0.00 0.00 91 1016.1
20260905114958 68 250 0.9 1.7 0.00 0.00 0.00 91 1016.2
20260905114457 68 260 0.9 0.9 0.00 0.00 0.00 91 1015.9
20260905113955 68 252 0.0 0.9 0.00 0.00 0.00 92 1016.0
20260905113452 68 266 0.9 1.7 0.00 0.00 0.00 92 1015.9
20260905112947 68 248 0.9 1.7 0.00 0.00 0.00 92 1015.8
20260905112442 68 244 0.0 0.9 0.00 0.00 0.00 92 1016.0
20260905111937 67 238 0.9 0.9 0.00 0.00 0.00 92 1015.8
20260905111431 67 243 0.9 1.7 0.00 0.00 0.00 92 1015.8
20260905110926 67 249 0.9 0.9 0.00 0.00 0.00 93 1016.1
20260905110420 67 248 0.0 0.9 0.00 0.00 0.00 93 1015.9